This is the latest recevied weather packets stored in our database for station/object WD0REW. If no packets are shown the sender has not sent any weather packets the latest 10 day(s).
| Time | Temp. | Humidity | Pressure | Rain* | Wind** | Luminosity | Snow |
|---|---|---|---|---|---|---|---|
| 1777572963 | 19.44° C | 42% | 1018.4 hPa | 0 mm | - | 785 W/m² | - |
| 1777572660 | 19.44° C | 36% | 1018.8 hPa | 0 mm | - | 829 W/m² | - |
| 1777572359 | 18.89° C | 44% | 1018.7 hPa | 0 mm | - | 819 W/m² | - |
| 1777572056 | 18.33° C | 40% | 1018.9 hPa | 0 mm | - | 818 W/m² | - |
| 1777571756 | 18.33° C | 37% | 1019.2 hPa | 0 mm | - | 814 W/m² | - |
| 1777571454 | 18.33° C | 41% | 1019.3 hPa | 0 mm | - | 811 W/m² | - |
| 1777571149 | 17.78° C | 37% | 1019.3 hPa | 0 mm | - | 812 W/m² | - |
| 1777570845 | 18.33° C | 36% | 1019.5 hPa | 0 mm | - | 802 W/m² | - |
| 1777570541 | 17.78° C | 42% | 1019.7 hPa | 0 mm | - | 810 W/m² | - |
| 1777570239 | 18.33° C | 39% | 1019.6 hPa | 0 mm | - | 810 W/m² | - |
| 1777569933 | 17.78° C | 38% | 1019.6 hPa | 0 mm | - | 781 W/m² | - |
| 1777569630 | 17.78° C | 39% | 1019.9 hPa | 0 mm | - | 751 W/m² | - |
| 1777569326 | 17.78° C | 39% | 1019.9 hPa | 0 mm | - | 735 W/m² | - |
| 1777569022 | 17.22° C | 38% | 1019.8 hPa | 0 mm | - | 656 W/m² | - |
| 1777568719 | 16.67° C | 42% | 1019.8 hPa | 0 mm | - | 525 W/m² | - |
| 1777568417 | 16.67° C | 40% | 1020 hPa | 0 mm | - | 481 W/m² | - |
| 1777568114 | 17.22° C | 39% | 1019.9 hPa | 0 mm | - | 540 W/m² | - |
| 1777567810 | 16.67° C | 39% | 1019.9 hPa | 0 mm | - | 572 W/m² | - |
| 1777567506 | 17.22° C | 41% | 1020 hPa | 0 mm | - | 630 W/m² | - |
| 1777567204 | 17.78° C | 44% | 1019.9 hPa | 0 mm | - | 685 W/m² | - |
| 1777566902 | 16.67° C | 43% | 1019.8 hPa | 0 mm | - | 699 W/m² | - |
| 1777566600 | 17.22° C | 38% | 1020.1 hPa | 0 mm | - | 688 W/m² | - |
| 1777566297 | 16.67° C | 43% | 1020.3 hPa | 0 mm | - | 739 W/m² | - |
| 1777565994 | 16.11° C | 48% | 1019.8 hPa | 0 mm | - | 735 W/m² | - |
| 1777565695 | 16.67° C | 42% | 1020 hPa | 0 mm | - | 690 W/m² | - |
* Rain latest hour (hover to see other rain measurements)
** Current wind speed in m/s (hover to see current wind gust speed)